Location: Crescent
(42.8242°N, 73.7329°W)
Time: 21:15:39
(UTC+00:00)

SR - Pass Details

Date: 23 February 2026
Orbit: 573 x 848 km, 66.7° (Epoch: 6 March)

Event Time Altitude Azimuth Distance (km) Brightness Sun altitude
Rises 08:15:33 0° 216° (SW) 2,768 - -37.6°
Reaches altitude 10° 08:17:44 10° 218° (SW) 1,884 - -37.2°
Maximum altitude 08:21:55 69° 303° (WNW) 637 - -36.5°
Exits shadow 08:26:01 12° 26° (NNE) 1,857 ? -35.8°
Drops below altitude 10° 08:26:21 10° 27° (NNE) 1,989 ? -35.8°
Sets 08:28:42 0° 30° (NNE) 2,938 ? -35.4°
